Location: New Town
(33.2710°N, 90.7534°W)
Time: 13:22:20
(UTC+00:00)

Explorer 11/Cluster Stage 4 - Pass Details

Date: 19 May 2021
Orbit: 467 x 1257 km, 28.8° (Epoch: 14 June)

Event Time Altitude Azimuth Distance (km) Brightness Sun altitude
Rises 21:03:38 0° 198° (SSW) 3,206 9.9 47.1°
Reaches altitude 10° 21:07:29 10° 170° (S) 2,475 9.2 46.3°
Maximum altitude 21:10:01 13° 145° (SE) 2,399 9.0 45.8°
Drops below altitude 10° 21:12:44 10° 120° (ESE) 2,724 9.1 45.2°
Sets 21:17:26 0° 95° (E) 3,871 9.7 44.3°
